Home > Weather > Vienna > Past weeks

Flag for Austria Past Weather in Vienna, Vienna, Austria — Yesterday and Last 2 Weeks

Now
68 °F

Rain showers. Overcast.


Feels Like: 68 °F
Forecast: 61 / 83 °F
Wind: 6 mph from West

Location: Wien / Hohe Warte

Current Time: Jul 28, 2016 at 3:08:38 AM

Latest Report: Jul 28, 2016 at 2:00 AM


Visibility: 3 mi

Pressure: 29.99 "Hg

Humidity: 93%

Dew Point: 66 °F

Location of ViennaLocation

Past Weather in Vienna — Graph

°F

Vienna Temperature Yesterday

Maximum temperature yesterday: 83 °F (at 6:00 PM)
Minimum temperature yesterday: 69 °F (at 6:00 AM)
Average temperature yesterday: 76 °F

High & Low Weather Summary for the Past Weeks

 TemperatureHumidityPressure
High86 °F (Jul 21, 3:00 PM)96% (Jul 23, 6:00 AM)30.22 "Hg (Jul 23, 6:00 AM)
Low55 °F (Jul 14, 6:00 AM)41% (Jul 19, 6:00 PM)29.76 "Hg (Jul 14, 7:00 AM)
Average71 °F69%30.02 "Hg
* Reported Jul 13 1:00 AM — Jul 28 1:00 AM, Vienna, Weather by CustomWeather, © 2016

Note: Actual official high and low records may vary slightly from our data, if they occured in-between our weather recording intervals... More about our weather records

Advertising

Vienna Weather History for the Previous 24 Hours

Scroll right to see more
 ConditionsComfort  
Time TempWeatherWind HumidityBarometerVisibility
1:00 AM
Thu, Jul 28
71 °FFog.5 mph80%29.98 "HgN/A
12:00 AM71 °FMild.1 mph76%29.96 "HgN/A
11:00 PM
Wed, Jul 27
72 °FPassing clouds.3 mph75%29.96 "Hg12 mi
10:00 PM74 °FMild.1 mph72%29.95 "HgN/A
9:00 PM77 °FPassing clouds.3 mph70%29.94 "Hg16 mi
8:00 PM79 °FOvercast.2 mph66%29.91 "Hg16 mi
7:00 PM80 °FPartly sunny.2 mph61%29.90 "Hg16 mi
6:00 PM83 °FPartly sunny.2 mph54%29.89 "Hg14 mi
5:00 PM83 °FOvercast.2 mph57%29.90 "Hg14 mi
4:00 PM82 °FOvercast.3 mph58%29.91 "Hg14 mi
3:00 PM81 °FPartly sunny.1 mph56%29.94 "Hg14 mi
2:00 PM82 °FScattered clouds.2 mph55%29.94 "Hg12 mi
1:00 PM81 °FScattered clouds.3 mph60%29.97 "Hg12 mi
12:00 PM79 °FPartly sunny.2 mph65%29.99 "Hg11 mi
11:00 AM78 °FPartly sunny.2 mph66%30.00 "Hg11 mi
10:00 AM76 °FPartly sunny.3 mph68%30.01 "Hg11 mi
9:00 AM77 °FPartly sunny.2 mph66%30.00 "Hg12 mi
8:00 AM74 °FScattered clouds.2 mph71%30.01 "Hg12 mi
7:00 AM71 °FScattered clouds.3 mph76%30.02 "Hg12 mi
6:00 AM69 °FPartly sunny.3 mph80%30.01 "Hg11 mi
5:00 AM70 °FMild.5 mph79%30.01 "HgN/A
4:00 AM71 °FMild.5 mph76%30.01 "HgN/A
3:00 AM72 °FMild.1 mph70%30.01 "HgN/A
Weather by CustomWeather, © 2016

See weather overviewHow to use our weather pages